Location: Gollag?dem
(16.8053°N, 80.8024°E)
Time: 12:53:00
(UTC+00:00)

Sakura Rocket - Pass Details

Date: 13 August 2020
Orbit: 476 x 1743 km, 28.7° (Epoch: 25 September)

Event Time Altitude Azimuth Distance (km) Brightness Sun altitude
Rises 13:33:16 0° 295° (WNW) 4,502 9.8 -7.8°
Reaches altitude 10° 13:36:42 10° 296° (WNW) 3,333 8.4 -8.6°
Maximum altitude 13:44:56 83° 23° (NNE) 1,025 4.1 -10.4°
Enters shadow 13:49:53 15° 112° (ESE) 2,100 5.1 -11.6°
